Regional Weather Roundup
Issued by NWS Sioux Falls, SD

Home | Current Version | Previous Version | Text Only | Print | Product List | Glossary Off
Versions: 1 2 3 4 5 6 7 8 9 10 11 12 13 14 15 16 17 18 19 20 21 22 23 24 25 26 27 28 29 30 31 32 33 34 35 36 37 38 39 40 41 42 43 44 45 46 47 48 49 50

000
ASUS43 KFSD 030610
RWRFSD

WEATHER ROUNDUP FOR SE SOUTH DAKOTA/SW MINNESOTA/NW IOWA
NATIONAL WEATHER SERVICE SIOUX FALLS SD
100 AM CDT WED JUN 03 2015

NOTE: "FAIR" INDICATES FEW OR NO CLOUDS BELOW 12,000 FEET WITH NO
SIGNIFICANT WEATHER AND OR OBSTRUCTIONS TO VISIBILITY.


SDZ038>040-050-052>070-030700-
SOUTHEAST SOUTH DAKOTA

CITY           SKY/WX    TMP DP  RH WIND       PRES   REMARKS
BROOKINGS      CLOUDY    68  61  77 S16G25    29.80F
CHAMBERLAIN    LGT RAIN  64  60  85 W18       29.79F
6HR MIN TEMP:  64; 6HR MAX TEMP:  82; 6HR PCP:  0.03;

HURON          CLOUDY    72  63  73 S10       29.76R
6HR MIN TEMP:  72; 6HR MAX TEMP:  82;

MADISON        FAIR      66  64  94 S21G26    29.80F
MITCHELL       CLOUDY    71  62  73 S15G28    29.80R
6HR MIN TEMP:  71; 6HR MAX TEMP:  82;

SIOUX FALLS    CLOUDY    67  59  75 S15G23    29.83F
6HR MIN TEMP:  67; 6HR MAX TEMP:  77;

WINNER         LGT RAIN  65  58  78 W14       29.82F
YANKTON        CLOUDY    66  61  82 S8G20     29.82S
$$

MNZ071-072-080-081-089-090-097-098-030700-
SOUTHWEST MINNESOTA

CITY           SKY/WX    TMP DP  RH WIND       PRES   REMARKS
FAIRMONT       PTCLDY    63  52  67 S16       29.89F
JACKSON        PTCLDY    64  55  72 S14G20    29.90F
LUVERNE        CLOUDY    68  59  73 S12G17    29.86F
MARSHALL       PTCLDY    68  55  64 S15       29.81F
6HR MIN TEMP:  68; 6HR MAX TEMP:  81;

MONTEVIDEO     PTCLDY    68  57  68 SW14G23   29.79F
PIPESTONE      CLOUDY    66  59  77 S20       29.83F
REDWOOD FALLS  PTCLDY    66  55  67 S16       29.84F
TRACY          MOCLDY    67  57  71 S15G21    29.82F
WINDOM         PTCLDY    64  55  72 S12       29.88F
WORTHINGTON    PTCLDY    63  54  72 S18       29.87F
$$

IAZ001>003-012>014-020>022-031-032-NEZ013-014-SDZ071-030700-
NORTHWEST IOWA

CITY           SKY/WX    TMP DP  RH WIND       PRES   REMARKS
CHEROKEE       MOCLDY    62  57  83 S8        29.89F
DENISON        CLOUDY    63  61  94 S12G18    29.90S
ESTHERVILLE    PTCLDY    62  55  77 S17       29.90S
LE MARS        MOCLDY    64  59  82 S14G22    29.87F
ORANGE CITY    MOCLDY    63  55  77 S12G17    29.87F
SHELDON        PTCLDY    64  57  77 S17G25    29.85F
SIOUX CITY     MOCLDY    65  57  75 S13       29.87F
6HR MIN TEMP:  65; 6HR MAX TEMP:  79;

SPENCER        MOCLDY    65  57  75 S15       29.90S
6HR MIN TEMP:  64; 6HR MAX TEMP:  75;

STORM LAKE     CLOUDY    63  55  77 S14       29.93S
$$

ABBREVIATIONS USED IN REMARKS
   TC - TEMPERATURE IN CELSIUS
  WCI - WIND CHILL INDEX
   HX - HEAT INDEX
  VSB - VISIBILITY



USA.gov is the U.S. government's official web portal to all federal, state and local government web resources and services.